User: anonymous   Login
Location: Ellingshausen
(50.5460°N, 10.4723°E)
Time: 02:21:22
(UTC+00:00)
Language:

Cosmos 1763 Rocket - Orbit

View from above orbital plane
View from above orbital plane
View from above satellite
View from above satellite

Ground track
Ground track

The orbit is defined by the following mean orbital elements,

1 16864U          26073.58814481 +.00000000 +00000-0 +85940-4 0 00005
2 16864  74.0284 303.4937 0032289 337.3417  22.6311 14.42277838    04
Epoch (UTC): 14 March 2026 14:06:55
Eccentricity: 0.0032289
inclination: 74.0284°
perigee height: 728 km
apogee height: 774 km
right ascension of ascending node: 303.4937°
argument of perigee: 337.3417°
revolutions per day: 14.42277838
mean anomaly at epoch: 22.6311°

The dashed part of the orbit path shows where the satellite is in the earth's shadow,  

DLR